KF5NXR Weather Reports


time (UTC)temp
F
wind
direction
speed
knots
gust
knots
rain 1hr
in
rain 24hr
in
rain mn
in
humidity
%
barometer
mb
20260506121515 54 135 0.0 0.9 0.00 0.00 0.00 85 1016.7
20260506120014 54 137 0.0 0.0 0.00 0.00 0.00 84 1016.2
20260506114511 54 138 0.0 0.9 0.00 0.00 0.00 84 1015.8
20260506113009 54 143 0.0 0.9 0.00 0.00 0.00 83 1015.9
20260506111507 55 145 0.0 0.9 0.00 0.00 0.00 81 1015.6
20260506110004 55 147 0.0 0.0 0.00 0.00 0.00 80 1015.2
20260506104504 55 147 0.0 0.0 0.00 0.00 0.00 80 1014.8
20260506103103 56 148 0.0 0.0 0.00 0.00 0.00 80 1014.7
20260506101558 56 142 0.0 0.0 0.00 0.00 0.00 79 1014.5
20260506100056 56 148 0.0 0.0 0.00 0.00 0.00 79 1014.4
20260506094555 57 150 0.0 0.0 0.00 0.00 0.00 78 1014.2
20260506093055 57 151 0.0 0.0 0.00 0.00 0.00 79 1014.1
20260506091555 57 153 0.0 0.0 0.00 0.00 0.00 79 1014.0
20260506090050 57 151 0.0 0.0 0.00 0.00 0.00 79 1013.6
20260506084550 57 151 0.0 0.0 0.00 0.00 0.00 80 1013.3
20260506083049 57 153 0.0 0.0 0.00 0.00 0.00 79 1013.2
20260506081546 58 153 0.0 0.0 0.00 0.00 0.00 79 1013.3
20260506073041 59 138 0.0 0.0 0.00 0.00 0.00 80 1013.4
20260506071540 59 151 0.0 0.0 0.00 0.00 0.00 81 1013.5
20260506061534 60 160 0.0 0.0 0.00 0.00 0.00 80 1013.4
20260506044526 62 165 0.0 0.0 0.00 0.00 0.00 81 1012.8
20260506043018 63 166 0.0 0.9 0.00 0.00 0.00 80 1012.5
20260506041515 65 175 0.0 0.9 0.00 0.00 0.00 80 1012.5
20260506040013 67 180 0.0 0.9 0.00 0.00 0.00 80 1012.3
20260506034506 69 190 0.0 0.0 0.00 0.00 0.00 80 1012.0
20260506033046 70 193 0.0 0.0 0.00 0.00 0.00 80 1011.7
20260506031549 71 197 0.0 0.0 0.00 0.00 0.00 80 1011.5
20260506030043 72 208 0.0 0.9 0.00 0.00 0.00 80 1011.0
20260506024545 73 212 0.0 1.7 0.00 0.00 0.00 78 1010.3
20260506023039 74 249 0.0 0.0 0.00 0.00 0.00 78 1009.8
20260506021610 75 270 0.0 0.0 0.00 0.00 0.00 79 1009.5
20260506020037 76 270 0.0 0.0 0.00 0.00 0.00 81 1009.5
20260506014538 78 270 0.0 0.0 0.00 0.00 0.00 86 1009.0
20260506013038 78 270 0.0 0.0 0.00 0.00 0.00 86 1009.3
20260506011544 78 270 0.0 0.0 0.00 0.00 0.00 85 1008.7
20260506010046 79 270 0.0 0.0 0.00 0.00 0.00 83 1008.6
20260506004535 79 271 0.0 0.0 0.00 0.00 0.00 82 1008.8
20260506003035 80 274 0.0 0.9 0.00 0.00 0.00 80 1008.5
20260506001534 80 274 0.0 0.9 0.00 0.00 0.00 79 1008.0
20260506000037 81 270 0.0 0.9 0.00 0.00 0.00 78 1008.0
20260505234557 81 272 0.0 1.7 0.00 0.00 0.00 77 1008.0
20260505233034 82 277 0.0 6.1 0.00 0.00 0.00 77 1007.8
20260505231532 83 277 0.0 6.1 0.00 0.00 0.00 76 1007.7
20260505230032 83 271 0.0 5.2 0.00 0.00 0.00 76 1007.5
20260505224533 84 274 0.0 5.2 0.00 0.00 0.00 75 1007.3
20260505223030 84 268 0.0 8.7 0.00 0.00 0.00 74 1007.5
20260505221529 84 272 0.0 7.8 0.00 0.00 0.00 73 1007.7
20260505220027 85 274 0.9 7.8 0.00 0.00 0.00 72 1007.5
20260505214527 86 273 0.0 5.2 0.00 0.00 0.00 71 1007.7
20260505213023 86 254 0.0 6.1 0.00 0.00 0.00 71 1007.7
20260505211535 86 271 0.0 2.6 0.00 0.00 0.00 70 1007.9
20260505210020 86 270 0.0 7.0 0.00 0.00 0.00 70 1008.0
20260505204518 85 258 0.9 8.7 0.00 0.00 0.00 72 1008.2
20260505203017 85 266 0.9 7.8 0.00 0.00 0.00 72 1008.2
20260505201516 84 268 0.0 8.7 0.00 0.00 0.00 71 1008.3
20260505200016 85 272 0.0 5.2 0.00 0.00 0.00 71 1008.4
20260505194512 84 288 1.7 11.3 0.00 0.00 0.00 73 1008.5
20260505193012 83 265 0.9 7.8 0.00 0.00 0.00 73 1008.4
20260505191511 82 264 0.0 8.7 0.00 0.00 0.00 74 1008.6
20260505190013 82 260 2.6 12.2 0.00 0.00 0.00 73 1008.8
20260505184518 81 264 0.0 11.3 0.00 0.00 0.00 75 1008.8
20260505183009 82 254 1.7 13.0 0.00 0.00 0.00 73 1008.8
20260505181509 83 272 3.5 13.9 0.00 0.00 0.00 72 1008.7
20260505180007 83 276 0.9 12.2 0.00 0.00 0.00 71 1009.0
20260505174506 84 266 2.6 11.3 0.00 0.00 0.00 70 1008.9
20260505173002 83 270 0.0 6.1 0.00 0.00 0.00 72 1009.1
20260505171559 82 278 0.9 10.4 0.00 0.00 0.00 74 1009.2
20260505170156 81 265 0.9 10.4 0.00 0.00 0.00 74 1009.2
20260505164556 81 271 0.0 11.3 0.00 0.00 0.00 74 1009.2
20260505163053 80 264 3.5 13.9 0.00 0.00 0.00 75 1008.9
20260505161551 80 270 0.9 13.0 0.00 0.00 0.00 77 1008.8
20260505153049 76 256 3.5 13.0 0.00 0.00 0.00 81 1009.0
20260505151545 76 261 0.9 20.0 0.00 0.00 0.00 81 1009.0
20260505124520 70 272 0.0 5.2 0.00 0.00 0.00 88 1008.7
20260505123021 70 270 0.9 11.3 0.00 0.00 0.00 88 1008.7